Accueil
METAR-TAF:

METAR-TAF

Aéroports :

Meiringen, Suisse

latitude: 46-44-25N, longitude: 8-06-36E, altitude: 577 m

Observation

Le bulletin a été fait il y a 26 minutes, à 01:20 UTC
Vent 10 kt de est/nord-est, variant entre nord et sud-est
Température 3°C
Humidité 65%
Pression 1019 hPa
Visibilité 10 km ou plus
Quelques nuages à une hauteur de 3700 ft

METAR: LSMM 170120Z AUTO 06010KT 010V130 9999NDV FEW037 03/M03 Q1019 RMK

Heure: 03:46 (01:46 UTC)


TAF: absent

Observations et prévisions météorologiques de plus de 4000 aéroports (messages METAR et TAF).

Les stations disponibles sont représentées par des disques jaunes et rouges sur la carte.

Passer la souris dessus pour voir le nom de la station.

Cliquer dessus pour voir les observations et prévisions météorologiques.

Pour changer de carte: cliquez sur les boutons verts avec une croix noire pour zoomer, sur le bouton vert avec un tiret pour effectuer un zoom arrière, ou sur les flèches vertes pour les cartes adjacentes.


METAR-TAF: